Location: Chin
(49.7667°N, 112.4500°W)
Time: 11:18:53
(UTC+00:00)

N. Korean satellite - Pass Details

Date: 03 December 2021
Orbit: 447 x 491 km, 97.3° (Epoch: 21 January)

Event Time Altitude Azimuth Distance (km) Brightness Sun altitude
Rises 11:35:03 0° 34° (NE) 2,470 10.6 -33.5°
Reaches altitude 10° 11:38:51 10° 78° (ENE) 1,582 10.0 -32.9°
Maximum altitude 11:39:25 10° 88° (E) 1,561 10.0 -32.8°
Drops below altitude 10° 11:39:59 10° 98° (E) 1,579 10.0 -32.7°
Sets 11:43:44 0° 142° (SE) 2,440 10.6 -32.1°
